Location: Alladorf
(49.9620°N, 11.3790°E)
Time: 19:19:25
(UTC+00:00)

Meteor PRIRODA - Pass Details

Date: 29 November 2020
Orbit: 489 x 510 km, 97.6° (Epoch: 24 January)

Event Time Altitude Azimuth Distance (km) Brightness Sun altitude
Rises 04:29:44 0° 16° (NNE) 2,634 7.4 -21.6°
Reaches altitude 10° 04:31:52 10° 20° (NNE) 1,744 6.5 -21.2°
Maximum altitude 04:35:36 62° 101° (ESE) 584 4.1 -20.6°
Drops below altitude 10° 04:39:17 10° 183° (S) 1,729 6.4 -20.0°
Sets 04:41:23 0° 187° (S) 2,608 7.3 -19.7°
